Date,TemperatureHighF,TemperatureAvgF,TemperatureLowF,DewpointHighF,DewpointAvgF,DewpointLowF,HumidityHigh,HumidityAvg,HumidityLow,PressureMaxIn,PressureMinIn,WindSpeedMaxMPH,WindSpeedAvgMPH,GustSpeedMaxMPH,PrecipitationSumIn
2013-1-1,37.8,32.9,22.7,28.3,20.5,9.4,72,60,50,29.85,29.68,11,6,30,0.00
2013-1-2,32.6,23.8,17.4,15.5,11.2,6.9,71,58,48,30.03,29.83,10,5,26,0.00
2013-1-3,27.2,18.9,9.4,14.6,4.2,-3.6,65,53,29,30.08,29.93,11,4,23,0.00
2013-1-4,41.2,32.2,24.0,25.5,21.4,14.6,75,64,48,29.93,29.76,9,4,19,0.00
2013-1-5,44.4,35.1,26.3,25.5,22.4,19.6,85,60,41,30.19,29.81,10,3,25,0.00
2013-1-6,45.4,35.2,26.8,34.7,30.1,23.0,97,82,61,30.14,29.85,6,1,12,0.00
2013-1-7,43.4,35.5,27.3,31.9,27.4,20.3,94,73,48,30.32,29.89,9,2,18,0.00
2013-1-8,49.7,38.0,24.3,34.5,31.2,23.6,98,78,50,30.30,30.21,8,4,18,0.00
2013-1-9,45.9,38.5,25.5,40.3,34.4,25.4,100,85,71,30.31,29.94,11,3,22,0.00
2013-1-10,47.9,42.2,33.3,35.5,26.1,23.4,74,53,40,30.45,30.01,16,6,36,0.00
2013-1-11,40.1,35.1,26.7,39.4,29.8,23.5,98,81,65,30.45,30.12,6,1,12,0.00
2013-1-12,45.3,41.8,39.3,44.3,41.6,39.3,100,99,95,30.13,30.04,4,0,11,0.00
2013-1-13,50.8,45.6,42.2,49.6,45.4,42.2,100,99,94,30.09,29.96,10,3,17,0.00
2013-1-14,62.7,51.3,40.8,56.4,44.7,31.5,100,80,50,30.18,29.85,11,5,22,0.00
2013-1-15,42.5,38.4,36.0,36.1,31.6,27.6,95,76,62,30.23,30.14,6,1,11,0.00
2013-1-16,36.2,33.7,31.5,35.0,32.5,27.9,100,96,71,30.16,29.72,7,1,14,0.00
2013-1-17,45.0,37.5,32.7,34.5,29.5,20.8,97,74,54,30.00,29.79,8,3,20,0.00
2013-1-18,33.1,25.7,22.6,20.2,6.4,-2.4,66,43,28,30.41,29.94,13,6,24,0.00
2013-1-19,49.6,39.6,25.7,36.2,28.5,11.0,79,65,45,30.34,29.85,14,8,29,0.00
2013-1-20,56.3,44.5,29.8,38.4,29.6,9.8,81,57,34,29.87,29.51,14,9,33,0.00
2013-1-21,32.7,26.9,22.1,24.1,13.6,7.1,94,60,37,30.03,29.72,10,3,20,0.00
2013-1-22,24.9,21.5,14.3,23.5,7.4,-3.1,95,58,32,30.02,29.68,12,7,25,0.00
2013-1-23,16.8,12.3,9.1,4.2,-4.5,-9.9,68,46,36,30.09,30.01,12,8,25,0.00
2013-1-24,20.6,12.6,5.4,-3.4,-6.4,-8.3,56,42,29,30.17,30.01,13,8,28,0.00
2013-1-25,25.7,17.4,10.0,15.0,-2.5,-8.0,88,42,26,30.24,29.98,11,4,24,0.00
2013-1-26,26.4,18.6,12.8,14.8,7.2,-2.4,93,63,36,30.18,29.93,12,6,28,0.00
2013-1-27,31.4,22.3,13.5,6.6,3.6,0.3,63,45,31,30.39,30.18,10,6,22,0.00
2013-1-28,32.5,27.9,21.5,31.3,17.2,2.1,99,67,36,30.38,29.93,6,1,11,0.00
2013-1-29,35.9,32.1,28.6,34.8,31.5,27.8,100,97,93,30.12,29.92,5,1,10,0.00
2013-1-30,55.7,48.1,33.9,55.5,47.9,33.9,100,99,95,30.08,29.44,16,8,31,0.00
2013-1-31,58.2,48.2,32.0,56.5,36.6,13.6,100,67,35,29.56,28.96,30,14,52,0.00
2013-2-1,33.0,28.8,22.2,16.2,10.3,4.8,55,45,34,30.04,29.56,12,9,28,0.00
2013-2-2,32.6,26.1,20.0,17.8,10.6,5.5,70,52,37,30.18,29.98,10,6,19,0.00
2013-2-3,36.4,26.8,21.7,23.1,20.0,15.8,86,75,57,29.98,29.66,8,4,15,0.00
2013-2-4,31.4,26.3,23.3,21.5,12.0,7.0,87,55,37,29.89,29.66,13,7,26,0.00
2013-2-5,26.5,24.6,22.9,24.1,17.1,10.1,94,73,56,29.95,29.85,4,1,9,0.00
2013-2-6,42.2,31.7,25.5,31.9,20.7,6.1,95,67,37,30.23,29.84,10,4,21,0.00
2013-2-7,34.5,26.4,20.9,14.4,7.8,5.2,66,45,31,30.45,30.24,7,4,13,0.00
2013-2-8,32.6,30.2,23.3,32.1,27.1,14.4,100,88,66,30.40,29.49,9,4,19,0.00
2013-2-9,25.0,20.7,16.1,21.8,17.2,6.5,98,86,65,30.12,29.35,6,1,14,0.00
2013-2-10,45.7,24.9,14.3,25.0,11.2,2.4,92,58,27,30.32,30.13,5,2,11,0.00
2013-2-11,45.5,36.8,24.0,45.5,34.8,14.6,100,92,64,30.29,29.54,12,4,24,0.00
2013-2-12,46.4,40.3,33.8,43.1,30.7,25.7,100,69,48,29.83,29.55,11,5,23,0.00
2013-2-13,48.6,36.9,31.1,30.5,25.7,22.4,84,64,39,29.80,29.60,8,3,15,0.00
2013-2-14,50.5,35.6,29.6,30.3,26.9,19.6,98,73,34,29.94,29.63,10,3,17,0.00
2013-2-15,48.7,40.3,31.4,38.0,35.9,28.5,99,85,62,29.95,29.85,12,6,22,0.00
2013-2-16,36.5,33.7,31.8,35.8,31.8,21.9,100,93,65,29.87,29.58,13,4,25,0.00
2013-2-17,31.6,23.2,16.8,24.9,11.9,1.6,94,64,35,29.64,29.33,17,12,38,0.00
2013-2-18,31.7,24.0,15.6,6.6,2.2,-0.1,53,39,25,30.11,29.64,16,9,33,0.00
2013-2-19,47.6,38.3,24.4,46.1,29.9,6.6,100,73,42,30.12,29.52,11,4,22,0.00
2013-2-20,43.3,33.3,26.3,42.0,19.9,10.3,95,59,39,29.74,29.49,14,8,30,0.00
2013-2-21,33.9,28.9,25.3,17.9,14.8,13.1,65,55,43,30.10,29.73,13,9,32,0.00
2013-2-22,44.0,32.5,26.6,28.1,22.4,17.4,81,66,50,30.29,30.11,10,4,18,0.00
2013-2-23,39.9,34.6,30.5,34.9,30.2,25.5,100,84,69,30.24,29.78,8,2,15,0.00
2013-2-24,39.3,35.8,31.6,39.3,35.6,31.4,100,99,94,29.80,29.57,12,7,26,0.00
2013-2-25,47.7,36.3,30.7,34.7,31.1,27.8,99,82,53,30.17,29.80,7,2,17,0.00
2013-2-26,53.0,39.2,34.5,35.6,31.0,26.7,92,73,48,30.24,30.04,8,2,14,0.00
2013-2-27,44.0,41.6,36.9,43.6,40.9,32.7,100,97,84,30.03,29.50,19,7,42,0.00
2013-2-28,52.3,41.1,34.5,43.2,38.3,34.4,100,90,69,29.58,29.45,3,0,12,0.00
2013-3-1,48.2,40.1,36.4,36.3,31.6,27.8,94,72,51,29.60,29.45,11,4,23,0.00
2013-3-2,42.5,38.3,34.6,30.4,27.7,26.5,72,65,56,29.61,29.55,6,3,14,0.00
2013-3-3,45.9,36.9,32.5,30.0,27.7,25.3,88,69,48,29.57,29.48,9,4,19,0.00
2013-3-4,41.4,34.7,29.0,28.6,23.5,21.3,85,64,50,29.65,29.51,12,9,29,0.00
2013-3-5,48.9,37.8,31.4,32.5,28.0,23.1,94,68,51,29.98,29.66,11,5,21,0.00
2013-3-6,43.3,37.2,33.0,36.7,34.1,31.4,97,88,70,29.97,29.85,15,7,33,0.00
2013-3-7,35.5,32.6,30.8,34.0,32.2,30.1,100,98,92,29.88,29.82,17,13,34,0.00
2013-3-8,39.1,32.3,30.0,34.0,29.9,25.8,100,91,61,30.01,29.81,16,12,32,0.00
2013-3-9,47.1,37.4,30.6,30.5,27.5,22.6,94,68,49,30.25,30.02,12,7,24,0.00
2013-3-10,52.7,38.8,30.5,36.0,32.3,29.3,95,79,48,30.33,30.24,8,4,13,0.00
2013-3-11,51.2,42.3,36.5,43.1,38.6,34.3,95,87,69,30.26,30.09,11,6,20,0.00
2013-3-12,56.0,50.2,42.0,52.8,48.9,41.3,100,95,83,30.09,29.66,20,9,42,0.00
2013-3-13,53.3,44.9,37.0,49.2,32.6,22.5,100,64,34,29.72,29.63,10,5,20,0.00
2013-3-14,38.1,32.4,24.9,27.1,17.1,8.2,81,53,36,29.78,29.65,15,7,31,0.00
2013-3-15,44.7,33.0,22.5,29.2,15.7,6.3,76,51,24,29.81,29.59,11,5,22,0.00
2013-3-16,44.3,35.8,30.5,28.9,18.9,9.8,73,51,28,29.79,29.63,11,4,22,0.00
2013-3-17,39.5,33.7,28.3,20.3,13.3,4.0,61,44,23,30.23,29.79,10,5,22,0.00
2013-3-18,41.6,30.7,20.7,27.7,12.5,1.9,89,47,28,30.37,30.14,8,5,17,0.00
2013-3-19,38.6,34.2,29.7,38.1,33.5,28.1,100,97,91,30.13,29.47,12,6,23,0.00
2013-3-20,42.4,34.9,29.2,30.1,22.2,17.5,90,61,41,29.74,29.61,13,5,25,0.00
2013-3-21,39.8,33.0,28.0,30.4,25.2,20.8,96,74,53,29.75,29.52,8,2,15,0.00
2013-3-22,42.7,35.0,27.8,29.4,19.8,15.6,91,54,38,29.70,29.54,12,7,25,0.00
2013-3-23,44.2,37.1,31.0,25.9,20.7,16.6,78,52,34,29.73,29.59,16,9,36,0.00
2013-3-24,51.6,39.6,32.0,30.1,24.0,19.4,81,55,34,29.76,29.64,9,5,20,0.00
2013-3-25,47.2,38.3,32.0,34.7,29.8,25.5,93,72,46,29.69,29.39,12,5,24,0.00
2013-3-26,48.1,40.0,33.2,34.0,28.1,22.7,97,65,40,29.71,29.41,12,6,26,0.00
2013-3-27,55.7,44.3,32.8,31.5,24.6,20.7,68,47,30,29.78,29.67,10,4,22,0.00
2013-3-28,50.1,42.9,37.7,36.0,33.4,29.3,89,70,47,29.95,29.77,10,4,22,0.00
2013-3-29,62.9,48.6,39.7,36.2,32.6,28.1,78,55,33,29.97,29.90,8,4,18,0.00
2013-3-30,59.7,49.0,39.8,33.9,25.9,15.8,69,44,19,30.03,29.92,8,4,19,0.00
2013-3-31,57.5,46.4,32.6,44.9,32.4,22.5,95,60,31,30.05,29.66,13,6,30,0.00
2013-4-1,58.4,47.8,36.5,47.7,39.5,14.9,100,74,39,29.74,29.47,17,9,35,0.00
2013-4-2,42.9,36.1,30.2,20.1,14.3,8.0,60,41,26,29.91,29.75,14,7,30,0.00
2013-4-3,45.8,37.5,31.3,17.3,14.0,11.0,52,38,25,30.11,29.88,14,10,29,0.00
2013-4-4,52.0,39.7,30.4,33.9,22.5,15.0,81,51,25,30.25,30.01,16,8,29,0.00
2013-4-5,61.8,47.1,39.2,41.4,33.0,19.7,81,60,25,30.01,29.56,12,6,25,0.00
2013-4-6,48.8,40.6,35.1,30.1,18.1,5.3,69,43,17,30.26,29.80,13,7,27,0.00
2013-4-7,50.4,42.5,30.1,44.0,34.4,23.9,94,74,37,30.26,29.98,19,8,35,0.00
2013-4-8,69.9,52.9,44.9,48.3,43.6,39.7,97,73,36,30.04,29.90,11,6,19,0.00
2013-4-9,77.1,58.8,46.7,55.1,45.4,39.3,99,66,31,30.02,29.76,13,6,29,0.00
2013-4-10,72.7,53.7,45.1,52.8,46.2,43.1,98,78,44,29.93,29.78,12,4,19,0.00
2013-4-11,57.6,49.8,45.6,49.1,43.4,34.5,99,80,55,30.05,29.75,11,3,19,0.00
2013-4-12,45.9,41.3,38.5,39.5,36.3,30.8,99,83,62,30.06,29.67,14,6,29,0.00
2013-4-13,59.7,45.7,37.7,43.3,38.2,35.3,97,76,50,29.87,29.63,12,5,24,0.00
2013-4-14,55.3,48.4,42.2,40.8,34.0,26.1,85,59,36,30.14,29.86,12,5,23,0.00
2013-4-15,58.3,46.2,36.8,40.7,33.8,27.2,91,63,35,30.34,30.14,10,4,18,0.00
2013-4-16,56.9,49.9,40.1,50.6,43.4,36.8,96,79,55,30.35,30.06,17,8,30,0.00
2013-4-17,71.7,57.1,44.9,53.1,44.0,32.9,94,66,25,30.26,30.02,12,5,21,0.00
2013-4-18,63.3,51.1,39.4,48.1,39.4,32.1,99,68,34,30.33,30.09,13,5,23,0.00
2013-4-19,67.1,57.2,51.1,60.7,55.7,48.1,100,95,77,30.09,29.65,16,10,30,0.00
2013-4-20,61.9,54.5,46.3,60.4,43.2,29.8,100,70,36,30.14,29.57,16,7,36,0.00
2013-4-21,57.9,44.9,36.2,34.7,26.1,21.4,77,49,26,30.60,30.15,12,6,25,0.00
2013-4-22,55.5,44.9,35.0,36.8,32.1,24.4,90,63,32,30.64,30.53,10,4,24,0.00
2013-4-23,43.9,41.9,39.8,42.6,40.1,33.3,100,93,75,30.49,29.98,13,6,29,0.00
2013-4-24,68.1,51.7,42.7,49.7,45.0,41.9,98,80,46,29.98,29.77,16,9,28,0.00
2013-4-25,68.1,54.9,46.3,51.8,40.5,25.0,98,64,22,30.19,29.81,10,5,22,0.00
2013-4-26,65.6,53.4,44.1,42.9,36.5,26.8,92,54,36,30.35,30.19,13,4,22,0.00
2013-4-27,64.5,50.7,39.4,47.3,39.6,33.2,100,69,37,30.35,30.25,10,4,19,0.00
2013-4-28,67.1,53.3,40.7,48.5,39.8,26.7,100,66,27,30.28,30.19,12,4,21,0.00
2013-4-29,64.9,54.7,47.6,50.1,41.0,26.3,97,64,26,30.22,30.16,12,5,20,0.00
2013-4-30,69.0,54.5,40.4,44.4,37.6,28.1,99,59,23,30.29,30.19,11,3,17,0.00
2013-5-1,73.3,55.2,40.8,50.5,43.4,37.2,94,68,28,30.41,30.29,8,3,18,0.00
2013-5-2,75.7,58.1,44.2,50.2,43.2,37.7,99,63,27,30.40,30.27,12,3,19,0.00
2013-5-3,63.1,52.1,42.4,46.4,41.9,38.6,90,69,51,30.41,30.31,9,4,20,0.00
2013-5-4,65.5,51.7,40.5,46.8,39.4,32.4,94,67,32,30.30,30.22,7,3,19,0.00
2013-5-5,68.9,51.5,37.5,46.7,41.9,37.3,99,73,38,30.26,30.16,7,3,15,0.00
2013-5-6,71.9,54.6,44.5,51.8,46.5,42.2,99,76,42,30.22,30.10,10,3,17,0.00
2013-5-7,76.7,60.2,46.5,59.8,53.6,46.5,100,81,45,30.13,30.04,11,3,19,0.00
2013-5-8,72.7,62.7,54.2,63.9,59.4,54.3,100,89,68,30.11,29.97,12,5,28,0.00
2013-5-9,78.6,60.8,55.2,66.6,58.7,55.2,100,93,55,29.97,29.79,8,2,15,0.00
2013-5-10,83.4,66.3,54.9,61.4,56.9,54.0,100,75,41,29.89,29.83,10,4,16,0.00
2013-5-11,67.6,60.2,56.7,60.9,58.7,55.6,100,94,75,29.88,29.64,13,7,29,0.00
2013-5-12,72.9,61.0,53.6,62.4,53.2,30.7,100,78,41,29.76,29.50,10,4,20,0.00
2013-5-13,64.5,53.4,45.1,36.6,31.2,26.6,66,43,27,29.96,29.77,8,4,18,0.00
2013-5-14,61.4,51.6,41.8,35.6,31.3,27.6,69,47,30,30.00,29.92,8,4,16,0.00
2013-5-15,66.0,54.0,40.9,54.5,45.0,34.2,95,73,39,30.01,29.64,14,6,32,0.00
2013-5-16,84.7,66.3,52.4,54.1,49.8,39.7,99,61,22,29.72,29.58,12,4,24,0.00
2013-5-17,74.7,60.7,50.2,53.0,44.7,40.2,86,57,33,30.17,29.73,8,4,21,0.00
2013-5-18,76.4,60.7,46.5,53.5,48.3,40.5,95,67,28,30.25,30.17,10,4,19,0.00
2013-5-19,70.7,59.1,49.7,56.1,51.4,46.8,99,77,48,30.28,30.16,12,4,22,0.00
2013-5-20,85.9,66.5,56.2,67.1,61.6,56.2,100,85,53,30.16,29.84,9,5,16,0.00
2013-5-21,85.9,67.7,53.2,68.2,62.2,53.0,100,84,54,29.91,29.75,12,4,24,0.00
2013-5-22,79.7,61.6,51.9,67.6,58.0,52.0,100,89,61,29.93,29.81,9,3,23,0.00
2013-5-23,73.2,64.9,60.2,67.5,63.4,60.3,100,95,80,29.85,29.77,13,8,24,0.00
2013-5-24,70.5,61.7,50.1,65.0,60.6,50.0,100,96,80,29.76,29.60,11,5,23,0.00
2013-5-25,52.8,48.4,42.2,51.3,47.5,39.8,100,96,86,29.72,29.63,10,6,25,0.00
2013-5-26,61.7,51.2,42.5,44.6,40.5,37.4,88,68,45,30.06,29.68,13,8,31,0.00
2013-5-27,75.8,60.8,44.8,47.0,40.4,33.3,92,52,24,30.11,30.00,11,4,25,0.00
2013-5-28,78.0,61.2,46.4,56.9,50.0,44.6,96,69,38,30.16,30.11,9,3,16,0.00
2013-5-29,73.4,63.2,57.5,65.2,60.0,56.8,100,89,67,30.14,29.93,10,5,19,0.00
2013-5-30,89.5,74.6,61.0,71.1,66.0,61.1,100,77,52,30.01,29.93,6,3,13,0.00
2013-5-31,94.3,78.6,65.2,70.0,65.5,62.4,94,66,38,30.01,29.89,11,4,20,0.00
2013-6-1,87.1,73.7,65.1,69.6,64.9,62.4,93,75,54,29.94,29.83,12,7,23,0.00
2013-6-2,77.6,69.0,63.6,65.7,63.8,62.5,97,84,65,29.86,29.74,14,8,27,0.00
2013-6-3,75.0,65.6,62.7,70.9,64.8,62.1,100,97,80,29.78,29.71,8,4,17,0.00
2013-6-4,73.8,64.7,54.4,64.0,45.7,40.5,98,51,37,30.01,29.75,11,4,22,0.00
2013-6-5,80.4,63.3,50.9,55.7,50.0,44.0,98,65,30,30.11,30.01,10,4,20,0.00
2013-6-6,76.0,64.0,54.3,62.1,54.3,48.9,98,72,46,30.12,30.03,10,3,18,0.00
2013-6-7,61.3,58.0,55.3,60.5,57.0,54.2,100,96,83,30.03,29.70,8,2,17,0.00
2013-6-8,84.7,65.2,55.0,66.5,59.9,55.1,100,85,52,29.94,29.49,8,4,17,0.00
2013-6-9,87.3,71.4,59.2,63.7,57.9,51.5,99,66,32,30.11,29.94,7,2,16,0.00
2013-6-10,76.1,65.1,57.5,65.1,60.8,57.5,100,87,59,30.11,29.91,5,1,12,0.00
2013-6-11,83.2,65.0,58.1,70.7,63.1,58.0,100,94,57,29.90,29.47,9,2,17,0.00
2013-6-12,73.2,65.7,58.0,61.6,54.9,51.4,100,69,49,29.75,29.50,13,6,27,0.00
2013-6-13,69.3,59.4,53.3,60.2,55.7,51.6,100,87,66,29.75,29.53,6,1,14,0.00
2013-6-14,75.3,61.0,52.4,57.8,53.5,48.1,100,79,50,29.70,29.50,8,4,23,0.00
2013-6-15,82.0,70.4,57.5,55.5,49.7,42.8,87,51,27,29.90,29.70,7,3,16,0.00
2013-6-16,80.9,67.8,56.2,64.0,57.7,52.1,93,72,41,29.90,29.69,10,4,19,0.00
2013-6-17,90.4,73.2,63.0,68.5,63.3,57.8,98,73,37,29.85,29.72,11,3,24,0.00
2013-6-18,89.0,68.2,58.4,68.5,61.3,56.9,100,81,44,29.87,29.76,7,2,20,0.00
2013-6-19,80.3,66.3,56.6,60.1,55.4,48.6,100,71,37,30.09,29.80,8,4,16,0.00
2013-6-20,82.9,68.7,55.6,60.3,56.3,49.1,99,68,33,30.21,30.09,10,4,20,0.00
2013-6-21,80.3,70.1,61.4,63.9,59.0,56.0,92,69,49,30.22,30.14,11,7,20,0.00
2013-6-22,83.5,70.8,63.5,64.5,59.3,55.7,95,68,45,30.19,30.09,11,6,22,0.00
2013-6-23,85.7,73.9,65.0,70.0,66.8,63.5,96,79,55,30.11,29.97,12,6,23,0.00
2013-6-24,97.2,81.4,70.2,75.0,71.2,65.6,98,74,45,29.97,29.81,12,4,29,0.00
2013-6-25,97.6,78.9,68.5,72.9,69.4,66.1,93,75,43,29.87,29.68,10,4,19,0.00
2013-6-26,93.7,79.8,71.6,74.1,71.2,66.5,98,77,45,29.76,29.65,8,2,19,0.00
2013-6-27,78.4,69.9,66.2,71.5,68.5,66.3,100,95,75,29.78,29.66,4,1,10,0.00
2013-6-28,78.7,70.6,66.6,73.7,70.0,66.7,100,98,80,29.66,29.45,12,7,24,0.00
2013-6-29,80.5,72.3,68.9,72.1,69.9,67.9,100,92,70,29.67,29.45,11,6,22,0.00
2013-6-30,80.9,72.3,68.8,73.5,70.2,68.4,100,93,75,29.88,29.67,10,5,19,0.00
2013-7-1,78.4,72.6,69.5,75.3,71.7,69.5,100,97,85,30.02,29.88,10,5,19,0.00
2013-7-2,82.5,74.5,71.1,75.3,72.5,69.9,100,93,78,30.13,30.02,8,5,17,0.00
2013-7-3,91.8,78.4,71.0,76.7,72.9,71.1,100,84,58,30.15,30.09,10,4,20,0.00
2013-7-4,93.9,82.4,73.9,78.4,74.8,72.4,98,79,56,30.14,30.05,8,4,19,0.00
2013-7-5,95.4,83.2,75.4,77.4,74.1,72.3,92,75,51,30.10,29.99,10,4,19,0.00
2013-7-6,97.4,85.5,75.1,76.7,73.6,70.8,93,69,46,30.01,29.91,7,3,15,0.00
2013-7-7,98.9,84.2,75.4,78.2,74.3,69.2,92,73,46,29.94,29.84,9,3,17,0.00
2013-7-8,96.2,82.8,70.0,75.5,72.1,66.4,96,72,43,29.96,29.84,7,4,16,0.00
2013-7-9,84.8,73.4,67.0,73.1,69.6,67.0,100,88,64,30.01,29.95,4,1,10,0.00
2013-7-10,84.4,75.5,70.8,75.9,73.1,70.3,99,92,68,29.98,29.74,11,5,21,0.00
2013-7-11,83.7,75.7,69.2,75.5,73.5,69.2,100,93,73,29.83,29.72,7,3,18,0.00
2013-7-12,79.4,72.7,66.5,71.5,66.6,61.8,98,82,64,30.10,29.82,7,3,17,0.00
2013-7-13,84.3,72.9,66.0,77.4,70.6,64.4,100,92,73,30.22,30.10,2,0,8,0.00
2013-7-14,97.4,83.4,72.0,77.7,73.6,69.7,100,75,45,30.22,30.12,6,2,13,0.00
2013-7-15,97.5,84.7,74.6,77.2,73.7,69.1,96,72,44,30.12,30.01,5,2,12,0.00
2013-7-16,97.3,84.6,75.2,75.9,70.9,66.3,95,66,40,30.08,30.01,7,3,16,0.00
2013-7-17,91.4,81.5,72.4,77.7,71.4,66.3,100,73,48,30.10,29.96,11,4,20,0.00
2013-7-18,101.5,85.4,76.0,77.2,74.0,71.3,88,70,42,29.96,29.87,9,4,17,0.00
2013-7-19,101.3,85.5,76.7,79.4,76.3,72.1,96,76,44,29.88,29.68,11,5,22,0.00
2013-7-20,94.2,82.8,74.2,78.9,75.7,70.3,93,80,52,29.73,29.58,10,4,26,0.00
2013-7-21,87.5,76.7,69.6,73.2,68.0,64.7,95,75,51,29.91,29.73,6,2,11,0.00
2013-7-22,90.7,77.8,69.1,73.0,70.1,66.5,98,79,50,29.91,29.79,6,2,11,0.00
2013-7-23,86.3,77.1,72.6,78.3,73.9,70.2,100,90,69,29.79,29.47,11,4,23,0.00
2013-7-24,92.3,80.0,72.3,74.5,69.6,63.2,98,72,49,29.85,29.51,6,2,13,0.00
2013-7-25,72.9,63.1,60.0,63.1,58.3,52.2,99,85,66,29.99,29.84,8,4,22,0.00
2013-7-26,72.1,64.9,60.9,67.6,63.8,60.6,100,96,84,29.96,29.85,10,4,20,0.00
2013-7-27,86.1,73.1,64.7,70.6,67.1,64.2,100,83,52,29.98,29.93,11,3,23,0.00
2013-7-28,92.8,74.3,68.0,76.6,69.6,67.9,100,86,50,29.93,29.88,10,2,17,0.00
2013-7-29,85.1,76.0,69.8,74.1,71.4,69.2,99,86,65,29.96,29.90,9,4,17,0.00
2013-7-30,84.8,75.0,66.4,70.8,60.1,56.0,98,61,40,30.03,29.96,7,3,16,0.00
2013-7-31,89.5,74.2,61.6,65.0,62.0,57.2,93,67,37,30.05,29.98,8,3,14,0.00
2013-8-1,83.8,72.9,64.8,70.6,64.4,59.5,95,76,48,29.98,29.81,10,4,20,0.00
2013-8-2,87.5,74.4,64.8,71.1,65.4,60.0,100,76,42,29.81,29.72,7,3,15,0.00
2013-8-3,80.3,72.9,66.9,69.0,65.4,62.0,95,77,59,29.81,29.72,6,2,14,0.00
2013-8-4,87.3,72.0,62.3,62.9,57.0,53.2,89,61,38,29.82,29.70,9,4,28,0.00
2013-8-5,78.4,68.2,59.1,58.3,50.9,43.6,93,57,30,29.98,29.83,9,4,18,0.00
2013-8-6,85.8,68.8,54.4,62.8,54.0,45.1,96,65,27,30.09,29.98,8,2,17,0.00
2013-8-7,82.8,69.4,59.0,68.1,58.7,50.7,100,72,38,30.11,30.06,10,3,17,0.00
2013-8-8,80.1,72.9,66.2,71.0,67.5,60.9,96,83,68,30.07,29.95,10,6,20,0.00
2013-8-9,74.4,73.0,71.5,74.3,72.5,71.0,100,98,94,29.98,29.70,14,7,28,0.00
2013-8-10,86.0,76.5,68.0,73.0,62.8,49.3,100,65,42,29.95,29.72,8,4,17,0.00
2013-8-11,83.6,71.2,57.5,61.6,55.2,48.8,86,59,36,30.01,29.94,8,3,15,0.00
2013-8-12,84.0,72.8,63.5,68.4,65.0,59.7,95,78,47,29.98,29.85,8,3,15,0.00
2013-8-13,76.5,69.2,64.6,69.8,66.6,64.0,100,91,69,29.86,29.62,5,2,11,0.00
2013-8-14,74.5,68.8,63.0,66.5,55.9,51.0,97,65,47,29.91,29.60,11,5,23,0.00
2013-8-15,82.5,68.8,57.7,57.7,53.1,44.5,83,60,32,30.06,29.91,6,3,14,0.00
2013-8-16,84.5,70.5,57.4,61.4,57.7,52.3,96,66,35,30.14,30.05,10,3,18,0.00
2013-8-17,91.8,71.8,59.0,64.3,59.8,55.7,99,69,36,30.21,30.14,6,1,11,0.00
2013-8-18,85.3,69.3,60.6,68.3,61.4,56.5,100,78,42,30.21,30.03,5,1,10,0.00
2013-8-19,85.9,72.3,60.5,66.9,61.1,56.4,91,70,44,30.03,29.90,6,2,14,0.00
2013-8-20,91.2,77.2,63.8,67.5,63.4,56.8,97,66,34,30.03,29.91,6,2,12,0.00
2013-8-21,92.3,77.4,63.4,69.6,65.5,61.2,97,70,37,30.06,29.97,8,2,14,0.00
2013-8-22,82.1,73.2,68.9,74.5,70.5,65.9,100,91,71,29.98,29.78,11,4,39,0.00
2013-8-23,86.6,73.1,61.9,70.6,64.0,58.0,100,75,42,30.03,29.75,8,2,18,0.00
2013-8-24,80.9,67.4,56.8,61.6,51.3,42.6,92,60,29,30.28,30.03,7,3,16,0.00
2013-8-25,87.8,70.3,55.5,62.5,56.6,48.5,99,66,26,30.28,30.14,9,3,17,0.00
2013-8-26,82.3,72.6,65.9,68.8,64.3,61.4,99,76,58,30.15,29.83,6,3,13,0.00
2013-8-27,83.7,72.6,66.7,74.4,69.5,66.7,100,91,65,29.83,29.74,5,1,11,0.00
2013-8-28,93.3,73.7,62.7,71.3,67.2,62.7,100,83,44,29.85,29.77,8,1,14,0.00
2013-8-29,69.5,65.1,60.8,68.0,63.7,59.7,100,95,87,29.98,29.85,6,2,16,0.00
2013-8-30,82.3,69.0,60.7,70.2,64.4,58.9,98,85,62,29.95,29.78,7,2,13,0.00
2013-8-31,82.6,73.9,69.3,73.9,71.2,69.0,100,91,73,29.78,29.73,10,5,17,0.00
2013-9-1,81.4,73.9,70.5,75.7,72.3,70.6,100,95,79,29.81,29.75,10,4,17,0.00
2013-9-2,79.8,72.8,67.8,75.8,72.1,67.9,100,98,83,29.80,29.65,7,3,24,0.00
2013-9-3,86.3,72.3,63.8,74.5,70.4,62.3,100,94,66,29.75,29.62,12,2,34,0.00
2013-9-4,84.3,70.6,60.3,62.7,59.9,56.2,93,71,41,29.87,29.75,7,3,16,0.00
2013-9-5,68.2,65.3,62.7,62.3,61.1,59.9,93,86,79,29.87,29.80,7,1,18,0.00
2013-11-14,53.8,47.1,44.6,33.8,27.8,20.8,63,48,30,30.09,30.00,7,4,14,0.00
2013-11-15,59.8,49.1,41.4,43.8,33.6,20.0,91,57,33,30.16,30.08,12,5,23,0.00
2013-11-16,63.9,49.9,39.9,45.6,39.0,30.8,99,69,36,30.27,30.16,6,2,14,0.00
2013-11-17,59.7,50.1,36.4,59.7,48.7,36.4,100,95,71,30.25,29.78,8,2,16,0.00
2013-11-18,68.0,57.2,50.4,61.9,47.7,-99.9,100,76,50,29.77,29.48,17,-13,38,0.00
2013-11-19,49.8,42.3,33.4,33.4,25.0,19.9,57,50,40,30.19,29.60,14,9,30,0.00
2013-11-20,44.0,33.6,28.3,22.8,16.9,12.1,75,51,29,30.55,30.20,11,4,19,0.00
2013-11-21,51.5,38.4,26.4,37.2,24.8,17.3,78,59,37,30.56,30.33,4,1,9,0.00
2013-11-22,51.7,47.8,43.0,51.3,45.4,37.0,99,91,79,30.33,29.76,4,1,12,0.00
2013-11-23,51.3,42.8,31.2,48.5,27.8,13.9,95,57,31,29.83,29.73,13,7,30,0.00
2013-11-24,31.0,25.1,22.0,14.2,4.8,-1.6,54,41,28,30.15,29.75,19,13,41,0.00
2013-11-25,35.5,27.1,18.3,25.2,6.2,-4.2,67,42,21,30.31,30.15,12,6,29,0.00
2013-11-26,44.9,39.7,35.2,44.6,28.7,19.9,98,66,44,30.27,29.96,7,3,17,0.00
2013-11-27,60.0,52.1,38.0,60.0,51.5,33.3,100,98,82,29.94,29.15,25,11,48,0.00
2013-11-28,38.3,32.0,25.8,33.3,17.3,9.6,84,55,37,30.38,29.44,14,8,32,0.00
2013-11-29,37.5,30.0,23.6,17.7,13.5,4.3,60,50,38,30.66,30.38,8,3,16,0.00
2013-11-30,40.5,28.3,18.4,25.5,16.9,7.4,79,63,40,30.71,30.37,7,2,12,0.00
2013-12-1,46.8,39.9,31.1,46.3,37.9,25.2,100,92,78,30.37,29.93,6,1,14,0.00
2013-12-2,44.3,38.5,36.3,41.9,38.0,36.2,100,98,89,29.93,29.84,3,0,10,0.00
2013-12-3,50.9,40.9,35.4,41.1,36.1,33.3,100,84,56,29.88,29.76,7,3,14,0.00
2013-12-4,51.6,39.0,32.5,35.2,32.3,29.2,97,78,48,30.14,29.88,4,1,10,0.00
2013-12-5,53.5,45.9,34.0,53.5,44.7,32.3,100,95,87,30.13,29.87,10,2,17,0.00
2013-12-6,54.5,49.4,36.9,54.6,48.6,36.7,100,97,89,30.04,29.80,7,3,18,0.00
2013-12-7,41.6,35.9,31.4,36.9,30.1,23.3,100,80,58,30.38,29.99,10,4,20,0.00
2013-12-8,33.0,30.1,26.3,23.5,19.7,16.7,80,65,53,30.52,30.39,3,1,10,0.00
2013-12-9,39.7,34.7,27.2,39.7,34.0,20.0,100,97,67,30.41,29.82,7,2,17,0.00
2013-12-10,36.1,32.7,27.2,35.1,30.9,20.7,99,93,72,29.96,29.72,7,1,17,0.00
2013-12-11,33.8,28.3,24.5,22.8,20.6,18.8,87,73,60,30.17,29.96,9,4,18,0.00
2013-12-12,28.0,23.7,19.3,19.4,9.8,2.0,74,56,38,30.20,30.03,10,5,21,0.00
2013-12-13,33.2,25.7,18.6,19.3,12.6,8.0,74,57,43,30.28,29.96,12,6,25,0.00
2013-12-14,29.6,19.3,13.8,28.6,10.6,-1.1,96,70,41,30.51,30.03,10,4,20,0.00
2013-12-15,37.6,31.7,26.3,37.6,29.3,22.7,100,91,72,30.01,29.30,8,2,20,0.00
2013-12-16,30.8,27.0,20.2,24.2,14.1,8.2,85,58,41,30.14,29.70,10,2,22,0.00
2013-12-17,24.4,18.8,11.3,22.7,14.3,7.5,94,82,63,30.20,29.84,12,3,23,0.00
2013-12-18,35.8,28.0,19.4,24.4,20.9,17.1,91,75,53,30.03,29.76,10,5,20,0.00
2013-12-19,48.0,36.8,27.6,31.2,26.1,21.2,77,65,49,30.06,29.89,7,3,17,0.00
2013-12-20,53.8,42.5,31.1,42.1,35.6,29.1,93,77,57,30.05,29.87,10,3,17,0.00
2013-12-21,56.4,49.2,43.4,50.3,46.7,41.1,100,91,74,29.93,29.82,11,6,17,0.00
2013-12-22,57.7,53.4,43.2,57.6,52.8,41.9,100,97,94,29.92,29.73,15,7,30,0.00
2013-12-23,43.6,39.1,34.8,42.2,38.9,34.8,100,99,95,30.00,29.86,9,2,20,0.00
2013-12-24,41.2,34.7,28.7,41.2,26.3,18.3,100,71,50,30.13,29.96,9,5,22,0.00
2013-12-25,28.5,21.5,18.3,17.7,7.8,3.6,75,55,42,30.48,30.14,12,4,26,0.00
2013-12-26,37.5,29.3,20.8,36.2,25.4,13.3,98,85,72,30.42,30.00,7,2,14,0.00
2013-12-27,39.7,31.8,26.2,24.8,22.0,18.9,90,67,45,30.22,30.14,9,2,17,0.00
2013-12-28,51.6,39.0,30.0,33.8,28.4,23.5,84,67,40,30.18,29.94,8,3,23,0.00
2013-12-29,45.2,41.0,37.7,42.9,38.0,33.3,100,89,74,29.98,29.27,11,4,24,0.00
2013-12-30,41.7,34.3,21.8,39.0,25.7,12.1,100,73,38,30.08,29.45,14,5,26,0.00
2013-12-31,30.3,22.7,16.3,18.1,10.9,4.3,74,60,44,30.13,29.97,8,4,15,0.00
2014-1-1,32.3,25.4,20.9,15.8,10.2,6.3,71,52,40,30.31,30.14,10,4,21,0.00
2014-1-2,28.6,20.8,6.9,27.3,18.7,4.6,95,91,61,30.27,29.68,15,6,26,0.00